TimeEDT,TemperatureF,Dew PointF,Humidity,Sea Level PressureIn,VisibilityMPH,Wind Direction,Wind SpeedMPH,Gust SpeedMPH,PrecipitationIn,Events,Conditions,WindDirDegrees,DateUTC
12:15 AM,62.6,57.2,82,30.19,6.0,ENE,9.2,-,N/A,,Overcast,70,2013-07-13 04:15:00
12:35 AM,62.6,57.2,82,30.19,10.0,NE,9.2,-,N/A,,Overcast,50,2013-07-13 04:35:00
12:55 AM,62.6,57.2,82,30.19,10.0,NE,10.4,-,N/A,,Overcast,50,2013-07-13 04:55:00
1:15 AM,62.6,57.2,82,30.19,10.0,ENE,6.9,-,N/A,,Overcast,60,2013-07-13 05:15:00
1:35 AM,62.6,57.2,82,30.19,10.0,NE,8.1,-,N/A,,Overcast,50,2013-07-13 05:35:00
1:55 AM,64.4,57.2,77,30.19,10.0,NE,6.9,-,N/A,,Overcast,50,2013-07-13 05:55:00
2:15 AM,64.4,57.2,77,30.20,10.0,ENE,5.8,-,N/A,,Overcast,60,2013-07-13 06:15:00
2:35 AM,64.4,57.2,77,30.20,10.0,ENE,5.8,-,N/A,,Overcast,60,2013-07-13 06:35:00
2:55 AM,64.4,57.2,77,30.20,10.0,ENE,6.9,-,N/A,,Overcast,60,2013-07-13 06:55:00
3:15 AM,64.4,57.2,77,30.20,10.0,ENE,10.4,-,N/A,,Overcast,60,2013-07-13 07:15:00
3:35 AM,64.4,57.2,77,30.20,10.0,ENE,8.1,-,N/A,,Overcast,60,2013-07-13 07:35:00
3:55 AM,64.4,57.2,77,30.20,10.0,ENE,8.1,-,N/A,,Overcast,70,2013-07-13 07:55:00
4:15 AM,64.4,57.2,77,30.20,10.0,ENE,8.1,-,N/A,,Overcast,70,2013-07-13 08:15:00
4:35 AM,64.4,57.2,77,30.21,10.0,East,5.8,-,N/A,,Overcast,80,2013-07-13 08:35:00
4:55 AM,64.4,57.2,77,30.22,10.0,ENE,4.6,-,N/A,,Overcast,70,2013-07-13 08:55:00
5:15 AM,64.4,57.2,77,30.22,10.0,ENE,8.1,-,N/A,,Overcast,60,2013-07-13 09:15:00
5:35 AM,64.4,59.0,83,30.23,10.0,ENE,5.8,-,N/A,,Overcast,60,2013-07-13 09:35:00
5:55 AM,64.4,59.0,83,30.23,7.0,East,4.6,-,N/A,,Overcast,90,2013-07-13 09:55:00
6:45 AM,64.4,59.0,83,30.25,6.0,ENE,5.8,-,N/A,,Overcast,60,2013-07-13 10:45:00
7:45 AM,64.4,60.8,88,30.26,3.0,ENE,6.9,-,N/A,Rain,Light Rain,70,2013-07-13 11:45:00
8:45 AM,64.4,60.8,88,30.29,3.0,ENE,9.2,-,N/A,Rain,Light Rain,70,2013-07-13 12:45:00
9:45 AM,66.2,62.6,88,30.30,3.0,East,8.1,-,N/A,Rain,Light Rain,90,2013-07-13 13:45:00
10:45 AM,66.2,62.6,88,30.30,6.0,East,5.8,-,N/A,,Overcast,90,2013-07-13 14:45:00
11:45 AM,68.0,64.4,88,30.31,4.0,ENE,8.1,-,N/A,,Overcast,70,2013-07-13 15:45:00
12:45 PM,71.6,66.2,83,30.32,5.0,ESE,6.9,-,N/A,,Overcast,110,2013-07-13 16:45:00
1:45 PM,73.4,69.8,88,30.31,5.0,SSE,6.9,-,N/A,,Overcast,150,2013-07-13 17:45:00
2:45 PM,73.4,68.0,83,30.32,5.0,ESE,6.9,-,N/A,,Overcast,110,2013-07-13 18:45:00
3:45 PM,71.6,66.2,83,30.32,5.0,ENE,5.8,-,N/A,,Overcast,60,2013-07-13 19:45:00
4:45 PM,73.4,68.0,83,30.31,6.0,NE,4.6,-,N/A,,Overcast,40,2013-07-13 20:45:00
5:45 PM,73.4,69.8,88,30.31,6.0,East,4.6,-,N/A,,Mostly Cloudy,90,2013-07-13 21:45:00
6:45 PM,75.2,69.8,83,30.32,6.0,South,3.5,-,N/A,,Overcast,170,2013-07-13 22:45:00
7:45 PM,75.2,69.8,83,30.32,6.0,SSE,4.6,-,N/A,,Overcast,160,2013-07-13 23:45:00
8:55 PM,73.4,69.8,88,30.33,10.0,SSE,3.5,-,N/A,,Overcast,150,2013-07-14 00:55:00
9:15 PM,73.4,69.8,88,30.33,10.0,SE,3.5,-,N/A,,Overcast,130,2013-07-14 01:15:00
9:35 PM,73.4,69.8,88,30.33,10.0,East,3.5,-,N/A,,Overcast,100,2013-07-14 01:35:00
9:55 PM,73.4,69.8,88,30.33,10.0,ESE,4.6,-,N/A,,Overcast,110,2013-07-14 01:55:00
10:15 PM,73.4,69.8,88,30.33,9.0,Calm,Calm,-,N/A,,Overcast,0,2013-07-14 02:15:00
10:35 PM,73.4,69.8,88,30.33,7.0,Calm,Calm,-,N/A,,Overcast,0,2013-07-14 02:35:00
10:55 PM,73.4,69.8,88,30.34,3.0,Calm,Calm,-,N/A,,Overcast,0,2013-07-14 02:55:00
11:15 PM,73.4,69.8,88,30.34,1.8,Calm,Calm,-,N/A,,Overcast,0,2013-07-14 03:15:00
11:35 PM,73.4,69.8,88,30.35,1.2,Calm,Calm,-,N/A,,Overcast,0,2013-07-14 03:35:00
11:55 PM,73.4,69.8,88,30.35,1.5,Calm,Calm,-,N/A,,Overcast,0,2013-07-14 03:55:00